Time,TemperatureF,DewpointF,PressureIn,WindDirection,WindDirectionDegrees,WindSpeedMPH,WindSpeedGustMPH,Humidity,HourlyPrecipIn,Conditions,Clouds,dailyrainin,SoftwareType,DateUTC
2013-03-21 00:05:00,52.5,30.1,29.97,SE,131,1.0,5.0,42,0.00,,---,0.00,VWS V14.01,2013-03-21 05:05:00,
2013-03-21 00:08:00,52.2,30.4,29.97,SE,132,3.0,5.0,43,0.00,,---,0.00,VWS V14.01,2013-03-21 05:08:00,
2013-03-21 00:14:00,51.9,30.7,29.96,SE,130,3.0,6.0,44,0.00,,---,0.00,VWS V14.01,2013-03-21 05:14:00,
2013-03-21 00:17:00,52.0,30.8,29.96,SE,142,5.0,6.0,44,0.00,,---,0.00,VWS V14.01,2013-03-21 05:17:00,
2013-03-21 00:23:00,52.0,30.8,29.96,SE,140,3.0,6.0,44,0.00,,---,0.00,VWS V14.01,2013-03-21 05:23:00,
2013-03-21 00:29:00,51.7,30.5,29.96,SE,141,2.0,6.0,44,0.00,,---,0.00,VWS V14.01,2013-03-21 05:29:00,
2013-03-21 00:31:00,51.6,30.4,29.96,SE,141,3.0,6.0,44,0.00,,---,0.00,VWS V14.01,2013-03-21 05:31:00,
2013-03-21 00:32:00,51.5,30.9,29.96,SE,141,3.0,4.0,45,0.00,,---,0.00,VWS V14.01,2013-03-21 05:32:00,
2013-03-21 00:38:00,51.1,31.1,29.96,SE,140,2.0,4.0,46,0.00,,---,0.00,VWS V14.01,2013-03-21 05:38:00,
2013-03-21 00:41:00,51.0,31.0,29.96,SE,140,2.0,4.0,46,0.00,,---,0.00,VWS V14.01,2013-03-21 05:41:00,
2013-03-21 00:48:00,50.5,31.0,29.95,SE,140,2.0,4.0,47,0.00,,---,0.00,VWS V14.01,2013-03-21 05:48:00,
2013-03-21 00:54:00,50.1,31.2,29.94,SSE,149,3.0,5.0,48,0.00,,---,0.00,VWS V14.01,2013-03-21 05:54:00,
2013-03-21 00:57:00,50.2,31.3,29.94,SSE,155,4.0,6.0,48,0.00,,---,0.00,VWS V14.01,2013-03-21 05:57:00,
2013-03-21 01:09:00,50.9,31.4,29.94,SSE,161,4.0,5.0,47,0.00,,---,0.00,VWS V14.01,2013-03-21 06:09:00,
2013-03-21 01:12:00,51.0,31.5,29.94,SSE,150,5.0,5.0,47,0.00,,---,0.00,VWS V14.01,2013-03-21 06:12:00,
2013-03-21 01:15:00,51.2,31.7,29.94,SSE,152,4.0,6.0,47,0.00,,---,0.00,VWS V14.01,2013-03-21 06:15:00,
2013-03-21 01:18:00,51.3,31.8,29.93,South,169,4.0,8.0,47,0.00,,---,0.00,VWS V14.01,2013-03-21 06:18:00,
2013-03-21 01:24:00,51.6,31.5,29.92,SSE,154,3.0,8.0,46,0.00,,---,0.00,VWS V14.01,2013-03-21 06:24:00,
2013-03-21 01:27:00,51.6,31.5,29.93,SSE,151,2.0,8.0,46,0.00,,---,0.00,VWS V14.01,2013-03-21 06:27:00,
2013-03-21 01:30:00,51.5,31.4,29.93,SSE,156,1.0,8.0,46,0.00,,---,0.00,VWS V14.01,2013-03-21 06:30:00,
2013-03-21 01:31:00,51.5,31.4,29.93,SSE,156,0.0,8.0,46,0.00,,---,0.00,VWS V14.01,2013-03-21 06:31:00,
2013-03-21 01:36:00,51.2,31.1,29.93,SSE,162,2.0,4.0,46,0.00,,---,0.00,VWS V14.01,2013-03-21 06:36:00,
2013-03-21 01:39:00,51.0,31.0,29.92,SSE,157,3.0,5.0,46,0.00,,---,0.00,VWS V14.01,2013-03-21 06:39:00,
2013-03-21 01:42:00,50.9,31.4,29.92,SSE,157,2.0,6.0,47,0.00,,---,0.00,VWS V14.01,2013-03-21 06:42:00,
2013-03-21 01:45:00,50.9,31.4,29.92,SSE,151,4.0,6.0,47,0.00,,---,0.00,VWS V14.01,2013-03-21 06:45:00,
2013-03-21 01:48:00,51.0,31.5,29.92,SSE,164,4.0,6.0,47,0.00,,---,0.00,VWS V14.01,2013-03-21 06:48:00,
2013-03-21 01:54:00,51.2,31.7,29.92,SSE,154,3.0,6.0,47,0.00,,---,0.00,VWS V14.01,2013-03-21 06:54:00,
2013-03-21 02:01:00,51.5,32.0,29.91,SSE,163,7.0,9.0,47,0.00,,---,0.00,VWS V14.01,2013-03-21 07:01:00,
2013-03-21 02:04:00,51.8,32.2,29.91,SSE,162,10.0,10.0,47,0.00,,---,0.00,VWS V14.01,2013-03-21 07:04:00,
2013-03-21 02:07:00,52.0,31.9,29.91,SSE,151,10.0,10.0,46,0.00,,---,0.00,VWS V14.01,2013-03-21 07:07:00,
2013-03-21 02:10:00,52.0,31.9,29.91,SSE,151,3.0,10.0,46,0.00,,---,0.00,VWS V14.01,2013-03-21 07:10:00,
2013-03-21 02:13:00,51.9,31.8,29.91,SSE,147,3.0,10.0,46,0.00,,---,0.00,VWS V14.01,2013-03-21 07:13:00,
2013-03-21 02:16:00,51.9,32.3,29.91,SSE,158,4.0,10.0,47,0.00,,---,0.00,VWS V14.01,2013-03-21 07:16:00,
2013-03-21 02:22:00,51.8,32.2,29.90,SE,141,4.0,10.0,47,0.00,,---,0.00,VWS V14.01,2013-03-21 07:22:00,
2013-03-21 02:25:00,51.7,32.1,29.90,SE,139,5.0,10.0,47,0.00,,---,0.00,VWS V14.01,2013-03-21 07:25:00,
2013-03-21 02:28:00,51.7,32.1,29.91,SSE,155,5.0,10.0,47,0.00,,---,0.00,VWS V14.01,2013-03-21 07:28:00,
2013-03-21 02:31:00,51.7,32.1,29.91,SSE,155,3.0,10.0,47,0.00,,---,0.00,VWS V14.01,2013-03-21 07:31:00,
2013-03-21 02:37:00,51.7,32.1,29.90,SSE,157,5.0,9.0,47,0.00,,---,0.00,VWS V14.01,2013-03-21 07:37:00,
2013-03-21 02:40:00,51.9,32.3,29.89,SSE,159,5.0,10.0,47,0.00,,---,0.00,VWS V14.01,2013-03-21 07:40:00,
2013-03-21 02:43:00,52.0,31.9,29.89,SSE,163,6.0,10.0,46,0.00,,---,0.00,VWS V14.01,2013-03-21 07:43:00,
2013-03-21 02:49:00,51.9,31.8,29.88,SSE,149,4.0,10.0,46,0.00,,---,0.00,VWS V14.01,2013-03-21 07:49:00,
2013-03-21 02:52:00,51.8,32.2,29.88,SE,144,4.0,10.0,47,0.00,,---,0.00,VWS V14.01,2013-03-21 07:52:00,
2013-03-21 02:55:00,51.7,32.1,29.88,SSE,150,3.0,10.0,47,0.00,,---,0.00,VWS V14.01,2013-03-21 07:55:00,
2013-03-21 02:58:00,51.7,32.1,29.88,SSE,155,5.0,10.0,47,0.00,,---,0.00,VWS V14.01,2013-03-21 07:58:00,
2013-03-21 03:04:00,51.7,32.1,29.87,SE,140,5.0,10.0,47,0.00,,---,0.00,VWS V14.01,2013-03-21 08:04:00,
2013-03-21 03:10:00,51.7,32.1,29.87,SSE,148,4.0,10.0,47,0.00,,---,0.00,VWS V14.01,2013-03-21 08:10:00,
2013-03-21 03:13:00,51.8,32.2,29.87,SE,146,9.0,10.0,47,0.00,,---,0.00,VWS V14.01,2013-03-21 08:13:00,
2013-03-21 03:19:00,52.2,32.1,29.86,SSE,153,8.0,14.0,46,0.00,,---,0.00,VWS V14.01,2013-03-21 08:19:00,
2013-03-21 03:25:00,52.2,31.5,29.86,SE,140,7.0,14.0,45,0.00,,---,0.00,VWS V14.01,2013-03-21 08:25:00,
2013-03-21 03:28:00,52.2,31.5,29.85,SSE,148,9.0,14.0,45,0.00,,---,0.00,VWS V14.01,2013-03-21 08:28:00,
2013-03-21 03:31:00,52.3,31.6,29.85,SE,131,9.0,9.0,45,0.00,,---,0.00,VWS V14.01,2013-03-21 08:31:00,
2013-03-21 03:34:00,52.3,31.6,29.85,SSE,161,8.0,12.0,45,0.00,,---,0.00,VWS V14.01,2013-03-21 08:34:00,
2013-03-21 03:37:00,52.3,31.6,29.85,SE,140,7.0,12.0,45,0.00,,---,0.00,VWS V14.01,2013-03-21 08:37:00,
2013-03-21 03:40:00,52.1,31.4,29.84,SSE,153,9.0,12.0,45,0.00,,---,0.00,VWS V14.01,2013-03-21 08:40:00,
2013-03-21 03:44:00,52.1,31.4,29.84,SSE,152,8.0,12.0,45,0.00,,---,0.00,VWS V14.01,2013-03-21 08:44:00,
2013-03-21 03:47:00,52.2,31.5,29.83,SSE,148,8.0,14.0,45,0.00,,---,0.00,VWS V14.01,2013-03-21 08:47:00,
2013-03-21 03:50:00,52.3,31.6,29.83,SE,140,10.0,14.0,45,0.00,,---,0.00,VWS V14.01,2013-03-21 08:50:00,
2013-03-21 03:56:00,52.6,31.3,29.84,SE,134,6.0,14.0,44,0.00,,---,0.00,VWS V14.01,2013-03-21 08:56:00,
2013-03-21 03:59:00,52.6,31.3,29.84,SSE,148,7.0,14.0,44,0.00,,---,0.00,VWS V14.01,2013-03-21 08:59:00,
2013-03-21 04:01:00,52.6,31.3,29.84,SE,133,12.0,14.0,44,0.00,,---,0.00,VWS V14.01,2013-03-21 09:01:00,
2013-03-21 04:02:00,52.6,31.3,29.84,SE,139,8.0,12.0,44,0.00,,---,0.00,VWS V14.01,2013-03-21 09:02:00,
2013-03-21 04:08:00,52.7,32.0,29.84,SE,134,8.0,14.0,45,0.00,,---,0.00,VWS V14.01,2013-03-21 09:08:00,
2013-03-21 04:11:00,52.6,31.3,29.84,SE,144,4.0,14.0,44,0.00,,---,0.00,VWS V14.01,2013-03-21 09:11:00,
2013-03-21 04:17:00,52.7,31.4,29.84,SSE,151,10.0,15.0,44,0.00,,---,0.00,VWS V14.01,2013-03-21 09:17:00,
2013-03-21 04:20:00,52.8,31.5,29.84,SE,146,7.0,15.0,44,0.00,,---,0.00,VWS V14.01,2013-03-21 09:20:00,
2013-03-21 04:23:00,52.9,31.6,29.83,SE,130,7.0,15.0,44,0.00,,---,0.00,VWS V14.01,2013-03-21 09:23:00,
2013-03-21 04:26:00,52.9,31.6,29.84,SE,146,7.0,15.0,44,0.00,,---,0.00,VWS V14.01,2013-03-21 09:26:00,
2013-03-21 04:29:00,52.9,32.2,29.84,SE,130,8.0,15.0,45,0.00,,---,0.00,VWS V14.01,2013-03-21 09:29:00,
2013-03-21 04:31:00,52.8,32.1,29.84,SSE,148,5.0,15.0,45,0.00,,---,0.00,VWS V14.01,2013-03-21 09:31:00,
2013-03-21 04:35:00,52.7,32.0,29.83,SE,136,7.0,10.0,45,0.00,,---,0.00,VWS V14.01,2013-03-21 09:35:00,
2013-03-21 04:41:00,52.6,31.9,29.83,SSE,157,3.0,10.0,45,0.00,,---,0.00,VWS V14.01,2013-03-21 09:41:00,
2013-03-21 04:44:00,52.5,31.8,29.83,SE,136,5.0,10.0,45,0.00,,---,0.00,VWS V14.01,2013-03-21 09:44:00,
2013-03-21 04:50:00,52.4,32.2,29.83,SE,130,8.0,10.0,46,0.00,,---,0.00,VWS V14.01,2013-03-21 09:50:00,
2013-03-21 04:56:00,52.3,32.2,29.83,SSE,151,6.0,10.0,46,0.00,,---,0.00,VWS V14.01,2013-03-21 09:56:00,
2013-03-21 05:01:00,52.3,32.2,29.83,SE,140,4.0,10.0,46,0.00,,---,0.00,VWS V14.01,2013-03-21 10:01:00,
2013-03-21 05:02:00,52.3,32.2,29.83,SSE,147,4.0,5.0,46,0.00,,---,0.00,VWS V14.01,2013-03-21 10:02:00,
2013-03-21 05:05:00,52.2,32.1,29.83,SE,143,2.0,6.0,46,0.00,,---,0.00,VWS V14.01,2013-03-21 10:05:00,
2013-03-21 05:08:00,52.3,32.2,29.83,SE,134,5.0,8.0,46,0.00,,---,0.00,VWS V14.01,2013-03-21 10:08:00,
2013-03-21 05:11:00,52.3,32.2,29.83,SE,141,6.0,8.0,46,0.00,,---,0.00,VWS V14.01,2013-03-21 10:11:00,
2013-03-21 05:14:00,52.3,32.2,29.83,SSE,157,6.0,8.0,46,0.00,,---,0.00,VWS V14.01,2013-03-21 10:14:00,
2013-03-21 05:17:00,52.2,32.1,29.83,SE,136,7.0,8.0,46,0.00,,---,0.00,VWS V14.01,2013-03-21 10:17:00,
2013-03-21 05:20:00,52.2,32.1,29.83,SSE,153,4.0,9.0,46,0.00,,---,0.00,VWS V14.01,2013-03-21 10:20:00,
2013-03-21 05:23:00,52.2,32.6,29.83,SE,140,6.0,9.0,47,0.00,,---,0.00,VWS V14.01,2013-03-21 10:23:00,
2013-03-21 05:26:00,52.2,32.1,29.82,SSE,153,7.0,10.0,46,0.00,,---,0.00,VWS V14.01,2013-03-21 10:26:00,
2013-03-21 05:29:00,52.3,32.2,29.82,SE,128,7.0,10.0,46,0.00,,---,0.00,VWS V14.01,2013-03-21 10:29:00,
2013-03-21 05:31:00,52.3,32.2,29.82,SSE,153,4.0,10.0,46,0.00,,---,0.00,VWS V14.01,2013-03-21 10:31:00,
2013-03-21 05:32:00,52.3,32.2,29.82,SE,136,9.0,9.0,46,0.00,,---,0.00,VWS V14.01,2013-03-21 10:32:00,
2013-03-21 05:35:00,52.3,32.2,29.82,South,169,5.0,9.0,46,0.00,,---,0.00,VWS V14.01,2013-03-21 10:35:00,
2013-03-21 05:41:00,52.2,32.1,29.82,SSE,160,4.0,9.0,46,0.00,,---,0.00,VWS V14.01,2013-03-21 10:41:00,
2013-03-21 05:44:00,52.1,32.0,29.82,SE,146,4.0,9.0,46,0.00,,---,0.00,VWS V14.01,2013-03-21 10:44:00,
2013-03-21 05:47:00,52.1,32.0,29.82,SE,142,9.0,10.0,46,0.00,,---,0.00,VWS V14.01,2013-03-21 10:47:00,
2013-03-21 05:52:00,52.1,32.5,29.81,SSE,157,5.0,10.0,47,0.00,,---,0.00,VWS V14.01,2013-03-21 10:52:00,
2013-03-21 05:55:00,52.1,32.0,29.81,SE,139,7.0,10.0,46,0.00,,---,0.00,VWS V14.01,2013-03-21 10:55:00,
2013-03-21 05:58:00,52.1,32.0,29.81,SE,134,7.0,10.0,46,0.00,,---,0.00,VWS V14.01,2013-03-21 10:58:00,
2013-03-21 06:04:00,52.2,32.6,29.80,SSE,153,4.0,8.0,47,0.00,,---,0.00,VWS V14.01,2013-03-21 11:04:00,
2013-03-21 06:07:00,52.2,32.1,29.80,SSE,149,6.0,9.0,46,0.00,,---,0.00,VWS V14.01,2013-03-21 11:07:00,
2013-03-21 06:10:00,52.2,32.1,29.80,SSE,159,5.0,9.0,46,0.00,,---,0.00,VWS V14.01,2013-03-21 11:10:00,
2013-03-21 06:16:00,52.2,32.1,29.80,SSE,155,6.0,10.0,46,0.00,,---,0.00,VWS V14.01,2013-03-21 11:16:00,
2013-03-21 06:19:00,52.2,32.1,29.79,SSE,148,5.0,11.0,46,0.00,,---,0.00,VWS V14.01,2013-03-21 11:19:00,
2013-03-21 06:22:00,52.2,32.1,29.79,SSE,156,5.0,11.0,46,0.00,,---,0.00,VWS V14.01,2013-03-21 11:22:00,
2013-03-21 06:25:00,52.1,32.5,29.79,SE,146,7.0,11.0,47,0.00,,---,0.00,VWS V14.01,2013-03-21 11:25:00,
2013-03-21 06:28:00,52.1,32.5,29.79,SE,140,9.0,11.0,47,0.00,,---,0.00,VWS V14.01,2013-03-21 11:28:00,
2013-03-21 06:32:00,52.2,32.6,29.78,SE,137,7.0,11.0,47,0.00,,---,0.00,VWS V14.01,2013-03-21 11:32:00,
2013-03-21 06:35:00,52.3,32.7,29.78,SSE,161,5.0,11.0,47,0.00,,---,0.00,VWS V14.01,2013-03-21 11:35:00,
2013-03-21 06:38:00,52.4,32.8,29.78,SSE,149,8.0,12.0,47,0.00,,---,0.00,VWS V14.01,2013-03-21 11:38:00,
2013-03-21 06:41:00,52.7,33.0,29.78,SE,140,6.0,12.0,47,0.00,,---,0.00,VWS V14.01,2013-03-21 11:41:00,
2013-03-21 06:44:00,53.1,33.4,29.78,SE,146,9.0,12.0,47,0.00,,---,0.00,VWS V14.01,2013-03-21 11:44:00,
2013-03-21 06:50:00,53.7,34.0,29.78,SSE,148,10.0,14.0,47,0.00,,---,0.00,VWS V14.01,2013-03-21 11:50:00,
2013-03-21 06:53:00,54.0,34.2,29.78,SSE,164,13.0,14.0,47,0.00,,---,0.00,VWS V14.01,2013-03-21 11:53:00,
2013-03-21 06:56:00,54.3,34.0,29.78,SSE,160,11.0,17.0,46,0.00,,---,0.00,VWS V14.01,2013-03-21 11:56:00,
2013-03-21 06:59:00,54.5,34.2,29.78,SE,145,7.0,17.0,46,0.00,,---,0.00,VWS V14.01,2013-03-21 11:59:00,
2013-03-21 07:05:00,54.6,34.2,29.78,SSE,155,10.0,15.0,46,0.00,,---,0.00,VWS V14.01,2013-03-21 12:05:00,
2013-03-21 07:14:00,54.6,34.2,29.78,SE,143,12.0,15.0,46,0.00,,---,0.00,VWS V14.01,2013-03-21 12:14:00,
2013-03-21 07:17:00,54.6,34.2,29.78,SSE,165,6.0,15.0,46,0.00,,---,0.00,VWS V14.01,2013-03-21 12:17:00,
2013-03-21 07:20:00,54.6,34.2,29.78,SSE,150,7.0,15.0,46,0.00,,---,0.00,VWS V14.01,2013-03-21 12:20:00,
2013-03-21 07:23:00,54.6,34.8,29.78,SSE,168,11.0,15.0,47,0.00,,---,0.00,VWS V14.01,2013-03-21 12:23:00,
2013-03-21 07:29:00,54.6,34.8,29.77,SE,140,9.0,15.0,47,0.00,,---,0.00,VWS V14.01,2013-03-21 12:29:00,
2013-03-21 07:32:00,54.7,34.9,29.77,South,175,4.0,12.0,47,0.00,,---,0.00,VWS V14.01,2013-03-21 12:32:00,
2013-03-21 07:35:00,54.7,34.9,29.77,SSE,156,8.0,14.0,47,0.00,,---,0.00,VWS V14.01,2013-03-21 12:35:00,
2013-03-21 07:38:00,54.7,34.9,29.77,SSE,158,5.0,14.0,47,0.00,,---,0.00,VWS V14.01,2013-03-21 12:38:00,
2013-03-21 07:41:00,54.7,34.9,29.77,SSE,165,10.0,14.0,47,0.00,,---,0.00,VWS V14.01,2013-03-21 12:41:00,
2013-03-21 07:47:00,54.8,35.5,29.77,SSE,164,7.0,14.0,48,0.00,,---,0.00,VWS V14.01,2013-03-21 12:47:00,
2013-03-21 07:50:00,54.8,35.5,29.78,SSE,167,6.0,14.0,48,0.00,,---,0.00,VWS V14.01,2013-03-21 12:50:00,
2013-03-21 07:53:00,54.8,35.5,29.77,SSE,168,4.0,14.0,48,0.00,,---,0.00,VWS V14.01,2013-03-21 12:53:00,
2013-03-21 08:00:00,54.8,35.5,29.77,South,182,5.0,14.0,48,0.00,,---,0.00,VWS V14.01,2013-03-21 13:00:00,
2013-03-21 08:03:00,54.9,35.6,29.77,SSE,167,11.0,11.0,48,0.00,,---,0.00,VWS V14.01,2013-03-21 13:03:00,
2013-03-21 08:09:00,55.1,36.3,29.77,SSE,164,7.0,13.0,49,0.00,,---,0.00,VWS V14.01,2013-03-21 13:09:00,
2013-03-21 08:12:00,55.2,36.4,29.77,SSE,149,9.0,13.0,49,0.00,,---,0.00,VWS V14.01,2013-03-21 13:12:00,
2013-03-21 08:18:00,55.3,36.5,29.76,SE,145,5.0,13.0,49,0.00,,---,0.00,VWS V14.01,2013-03-21 13:18:00,
2013-03-21 08:21:00,55.4,36.6,29.76,SSE,154,10.0,17.0,49,0.00,,---,0.00,VWS V14.01,2013-03-21 13:21:00,
2013-03-21 08:27:00,55.8,36.4,29.76,SSE,150,14.0,17.0,48,0.00,,---,0.00,VWS V14.01,2013-03-21 13:27:00,
2013-03-21 08:30:00,55.9,37.0,29.76,South,169,5.0,17.0,49,0.00,,---,0.00,VWS V14.01,2013-03-21 13:30:00,
2013-03-21 08:33:00,55.9,37.0,29.75,SE,138,9.0,11.0,49,0.00,,---,0.00,VWS V14.01,2013-03-21 13:33:00,
2013-03-21 08:39:00,56.2,37.3,29.75,SE,143,9.0,13.0,49,0.00,,---,0.00,VWS V14.01,2013-03-21 13:39:00,
2013-03-21 08:42:00,56.3,36.9,29.75,SSE,165,11.0,16.0,48,0.00,,---,0.00,VWS V14.01,2013-03-21 13:42:00,
2013-03-21 08:45:00,56.5,37.1,29.74,SSE,165,9.0,16.0,48,0.00,,---,0.00,VWS V14.01,2013-03-21 13:45:00,
2013-03-21 08:48:00,56.6,37.2,29.74,SE,138,11.0,16.0,48,0.00,,---,0.00,VWS V14.01,2013-03-21 13:48:00,
2013-03-21 08:51:00,56.7,36.7,29.74,SSE,153,10.0,16.0,47,0.00,,---,0.00,VWS V14.01,2013-03-21 13:51:00,
2013-03-21 08:57:00,56.8,36.8,29.74,South,171,17.0,17.0,47,0.00,,---,0.00,VWS V14.01,2013-03-21 13:57:00,
2013-03-21 09:03:00,57.1,37.1,29.74,SSE,160,12.0,16.0,47,0.00,,---,0.00,VWS V14.01,2013-03-21 14:03:00,
2013-03-21 09:06:00,57.2,36.6,29.74,South,173,14.0,17.0,46,0.00,,---,0.00,VWS V14.01,2013-03-21 14:06:00,
2013-03-21 09:12:00,57.5,36.3,29.74,SSE,165,8.0,17.0,45,0.00,,---,0.00,VWS V14.01,2013-03-21 14:12:00,
2013-03-21 09:15:00,57.7,36.5,29.73,SE,145,10.0,17.0,45,0.00,,---,0.00,VWS V14.01,2013-03-21 14:15:00,
2013-03-21 09:18:00,58.0,36.8,29.73,South,171,10.0,17.0,45,0.00,,---,0.00,VWS V14.01,2013-03-21 14:18:00,
2013-03-21 09:21:00,58.5,36.7,29.73,SE,135,18.0,18.0,44,0.00,,---,0.00,VWS V14.01,2013-03-21 14:21:00,
2013-03-21 09:24:00,58.9,35.9,29.73,SSE,152,15.0,19.0,42,0.00,,---,0.00,VWS V14.01,2013-03-21 14:24:00,
2013-03-21 09:30:00,59.7,36.0,29.73,South,174,10.0,19.0,41,0.00,,---,0.00,VWS V14.01,2013-03-21 14:30:00,
2013-03-21 09:33:00,60.1,35.7,29.72,SSE,162,10.0,19.0,40,0.00,,---,0.00,VWS V14.01,2013-03-21 14:33:00,
2013-03-21 09:37:00,60.4,36.0,29.72,SSE,149,14.0,19.0,40,0.00,,---,0.00,VWS V14.01,2013-03-21 14:37:00,
2013-03-21 09:43:00,61.1,35.3,29.72,SSE,158,9.0,19.0,38,0.00,,---,0.00,VWS V14.01,2013-03-21 14:43:00,
2013-03-21 09:46:00,61.2,35.4,29.73,South,179,17.0,22.0,38,0.00,,---,0.00,VWS V14.01,2013-03-21 14:46:00,
2013-03-21 09:49:00,61.4,35.6,29.72,SSW,197,10.0,22.0,38,0.00,,---,0.00,VWS V14.01,2013-03-21 14:49:00,
2013-03-21 09:52:00,61.3,35.5,29.72,SSE,162,10.0,22.0,38,0.00,,---,0.00,VWS V14.01,2013-03-21 14:52:00,
2013-03-21 09:55:00,61.5,35.7,29.72,SSE,161,11.0,22.0,38,0.00,,---,0.00,VWS V14.01,2013-03-21 14:55:00,
2013-03-21 09:58:00,61.6,35.8,29.72,SSE,167,13.0,22.0,38,0.00,,---,0.00,VWS V14.01,2013-03-21 14:58:00,
2013-03-21 10:01:00,61.6,35.8,29.72,SSE,167,10.0,22.0,38,0.00,,---,0.00,VWS V14.01,2013-03-21 15:01:00,
2013-03-21 10:04:00,61.7,36.5,29.71,South,173,13.0,18.0,39,0.00,,---,0.00,VWS V14.01,2013-03-21 15:04:00,
2013-03-21 10:07:00,61.8,36.6,29.71,South,171,11.0,20.0,39,0.00,,---,0.00,VWS V14.01,2013-03-21 15:07:00,
2013-03-21 10:10:00,62.2,37.0,29.71,South,178,10.0,20.0,39,0.00,,---,0.00,VWS V14.01,2013-03-21 15:10:00,
2013-03-21 10:13:00,62.6,38.0,29.71,SSE,165,12.0,20.0,40,0.00,,---,0.00,VWS V14.01,2013-03-21 15:13:00,
2013-03-21 10:19:00,63.5,38.1,29.71,South,191,9.0,21.0,39,0.00,,---,0.00,VWS V14.01,2013-03-21 15:19:00,
2013-03-21 10:22:00,63.7,38.3,29.71,SSE,159,17.0,21.0,39,0.00,,---,0.00,VWS V14.01,2013-03-21 15:22:00,
2013-03-21 10:25:00,64.1,38.7,29.71,SSW,198,16.0,21.0,39,0.00,,---,0.00,VWS V14.01,2013-03-21 15:25:00,
2013-03-21 10:28:00,64.2,39.4,29.71,SSW,194,14.0,21.0,40,0.00,,---,0.00,VWS V14.01,2013-03-21 15:28:00,
2013-03-21 10:34:00,64.9,40.0,29.70,SSW,195,7.0,16.0,40,0.00,,---,0.00,VWS V14.01,2013-03-21 15:34:00,
2013-03-21 10:37:00,65.2,40.3,29.70,South,188,13.0,19.0,40,0.00,,---,0.00,VWS V14.01,2013-03-21 15:37:00,
2013-03-21 10:40:00,65.3,40.4,29.70,South,170,15.0,20.0,40,0.00,,---,0.00,VWS V14.01,2013-03-21 15:40:00,
2013-03-21 10:43:00,65.3,41.0,29.70,South,184,14.0,25.0,41,0.00,,---,0.00,VWS V14.01,2013-03-21 15:43:00,
2013-03-21 10:46:00,65.7,41.4,29.70,SSW,195,11.0,25.0,41,0.00,,---,0.00,VWS V14.01,2013-03-21 15:46:00,
2013-03-21 10:52:00,66.1,41.1,29.69,South,191,13.0,25.0,40,0.00,,---,0.00,VWS V14.01,2013-03-21 15:52:00,
2013-03-21 10:55:00,66.6,41.5,29.69,SSW,194,13.0,25.0,40,0.00,,---,0.00,VWS V14.01,2013-03-21 15:55:00,
2013-03-21 10:58:00,67.4,42.3,29.69,SSE,160,10.0,25.0,40,0.00,,---,0.00,VWS V14.01,2013-03-21 15:58:00,
2013-03-21 11:01:00,68.2,43.0,29.69,SSW,207,12.0,17.0,40,0.00,,---,0.00,VWS V14.01,2013-03-21 16:01:00,
2013-03-21 11:04:00,67.8,43.3,29.69,South,190,20.0,22.0,41,0.00,,---,0.00,VWS V14.01,2013-03-21 16:04:00,
2013-03-21 11:07:00,67.8,43.3,29.68,South,191,11.0,23.0,41,0.00,,---,0.00,VWS V14.01,2013-03-21 16:07:00,
2013-03-21 11:10:00,68.3,43.7,29.68,South,188,17.0,23.0,41,0.00,,---,0.00,VWS V14.01,2013-03-21 16:10:00,
2013-03-21 11:13:00,68.6,44.0,29.68,South,188,17.0,23.0,41,0.00,,---,0.00,VWS V14.01,2013-03-21 16:13:00,
2013-03-21 11:16:00,69.0,44.3,29.67,South,170,17.0,23.0,41,0.00,,---,0.00,VWS V14.01,2013-03-21 16:16:00,
2013-03-21 11:20:00,68.6,44.0,29.68,South,186,15.0,23.0,41,0.00,,---,0.00,VWS V14.01,2013-03-21 16:20:00,
2013-03-21 11:23:00,67.9,44.6,29.68,South,188,14.0,25.0,43,0.00,,---,0.00,VWS V14.01,2013-03-21 16:23:00,
2013-03-21 11:26:00,67.7,45.0,29.69,South,188,20.0,25.0,44,0.00,,---,0.00,VWS V14.01,2013-03-21 16:26:00,
2013-03-21 11:29:00,67.6,44.9,29.68,SSW,198,13.0,25.0,44,0.00,,---,0.00,VWS V14.01,2013-03-21 16:29:00,
2013-03-21 11:32:00,67.5,44.8,29.68,South,169,11.0,18.0,44,0.00,,---,0.00,VWS V14.01,2013-03-21 16:32:00,
2013-03-21 11:38:00,67.6,44.9,29.68,South,173,18.0,23.0,44,0.00,,---,0.00,VWS V14.01,2013-03-21 16:38:00,
2013-03-21 11:41:00,67.5,45.4,29.67,SSW,196,17.0,23.0,45,0.00,,---,0.00,VWS V14.01,2013-03-21 16:41:00,
2013-03-21 11:47:00,67.6,44.9,29.66,SSW,208,10.0,23.0,44,0.00,,---,0.00,VWS V14.01,2013-03-21 16:47:00,
2013-03-21 11:50:00,67.7,45.0,29.66,South,181,9.0,23.0,44,0.00,,---,0.00,VWS V14.01,2013-03-21 16:50:00,
2013-03-21 11:59:00,68.1,45.4,29.66,SSW,209,14.0,23.0,44,0.00,,---,0.00,VWS V14.01,2013-03-21 16:59:00,
2013-03-21 12:02:00,68.2,44.9,29.66,SSW,206,17.0,19.0,43,0.00,,---,0.00,VWS V14.01,2013-03-21 17:02:00,
2013-03-21 12:05:00,68.1,44.8,29.66,SSW,202,10.0,21.0,43,0.00,,---,0.00,VWS V14.01,2013-03-21 17:05:00,
2013-03-21 12:08:00,68.0,44.7,29.66,South,190,17.0,21.0,43,0.00,,---,0.00,VWS V14.01,2013-03-21 17:08:00,
2013-03-21 12:14:00,68.0,44.7,29.65,SSW,205,11.0,21.0,43,0.00,,---,0.00,VWS V14.01,2013-03-21 17:14:00,
2013-03-21 12:17:00,67.9,44.6,29.65,SSW,213,14.0,22.0,43,0.00,,---,0.00,VWS V14.01,2013-03-21 17:17:00,
2013-03-21 12:23:00,68.0,44.7,29.65,SSW,192,18.0,22.0,43,0.00,,---,0.00,VWS V14.01,2013-03-21 17:23:00,
2013-03-21 12:29:00,69.4,45.3,29.65,SSW,206,11.0,22.0,42,0.00,,---,0.00,VWS V14.01,2013-03-21 17:29:00,
2013-03-21 12:32:00,70.0,45.2,29.64,South,180,16.0,16.0,41,0.00,,---,0.00,VWS V14.01,2013-03-21 17:32:00,
2013-03-21 12:35:00,70.1,45.3,29.64,SW,216,21.0,22.0,41,0.00,,---,0.00,VWS V14.01,2013-03-21 17:35:00,
2013-03-21 12:38:00,69.7,45.0,29.64,SW,218,13.0,24.0,41,0.00,,---,0.00,VWS V14.01,2013-03-21 17:38:00,
2013-03-21 12:42:00,69.3,44.6,29.63,SSW,206,12.0,25.0,41,0.00,,---,0.00,VWS V14.01,2013-03-21 17:42:00,
2013-03-21 12:48:00,69.5,45.4,29.63,SSW,195,15.0,25.0,42,0.00,,---,0.00,VWS V14.01,2013-03-21 17:48:00,
2013-03-21 12:51:00,69.4,45.3,29.63,SSW,200,15.0,25.0,42,0.00,,---,0.00,VWS V14.01,2013-03-21 17:51:00,
2013-03-21 12:57:00,69.9,46.4,29.63,SSW,194,10.0,25.0,43,0.00,,---,0.00,VWS V14.01,2013-03-21 17:57:00,
2013-03-21 13:03:00,71.1,46.9,29.62,SSE,163,15.0,22.0,42,0.00,,---,0.00,VWS V14.01,2013-03-21 18:03:00,
2013-03-21 13:09:00,72.1,47.8,29.62,South,189,11.0,22.0,42,0.00,,---,0.00,VWS V14.01,2013-03-21 18:09:00,
2013-03-21 13:12:00,72.5,47.5,29.62,SSW,198,14.0,22.0,41,0.00,,---,0.00,VWS V14.01,2013-03-21 18:12:00,
2013-03-21 13:15:00,72.2,47.9,29.61,SW,228,21.0,22.0,42,0.00,,---,0.00,VWS V14.01,2013-03-21 18:15:00,
2013-03-21 13:18:00,72.7,49.5,29.61,South,188,18.0,23.0,44,0.00,,---,0.00,VWS V14.01,2013-03-21 18:18:00,
2013-03-21 13:24:00,74.0,49.5,29.60,SSE,155,15.0,23.0,42,0.00,,---,0.00,VWS V14.01,2013-03-21 18:24:00,
2013-03-21 13:27:00,73.9,49.4,29.61,SSW,205,14.0,23.0,42,0.00,,---,0.00,VWS V14.01,2013-03-21 18:27:00,
2013-03-21 13:30:00,73.8,49.3,29.60,SSW,203,12.0,23.0,42,0.00,,---,0.00,VWS V14.01,2013-03-21 18:30:00,
2013-03-21 13:33:00,73.5,49.0,29.60,South,181,15.0,20.0,42,0.00,,---,0.00,VWS V14.01,2013-03-21 18:33:00,
2013-03-21 13:36:00,73.1,49.3,29.60,South,184,22.0,22.0,43,0.00,,---,0.00,VWS V14.01,2013-03-21 18:36:00,
2013-03-21 13:39:00,73.1,49.3,29.60,SW,225,11.0,22.0,43,0.00,,---,0.00,VWS V14.01,2013-03-21 18:39:00,
2013-03-21 13:42:00,73.3,50.1,29.59,South,178,13.0,22.0,44,0.00,,---,0.00,VWS V14.01,2013-03-21 18:42:00,
2013-03-21 13:45:00,73.4,50.2,29.59,SSW,208,17.0,22.0,44,0.00,,---,0.00,VWS V14.01,2013-03-21 18:45:00,
2013-03-21 13:48:00,73.2,50.6,29.59,SSW,209,15.0,22.0,45,0.00,,---,0.00,VWS V14.01,2013-03-21 18:48:00,
2013-03-21 13:51:00,73.0,49.8,29.58,South,186,16.0,22.0,44,0.00,,---,0.00,VWS V14.01,2013-03-21 18:51:00,
2013-03-21 13:54:00,72.6,50.1,29.58,SSW,206,16.0,24.0,45,0.00,,---,0.00,VWS V14.01,2013-03-21 18:54:00,
2013-03-21 14:00:00,72.2,50.9,29.58,SSW,201,9.0,24.0,47,0.00,,---,0.00,VWS V14.01,2013-03-21 19:00:00,
2013-03-21 14:04:00,72.4,51.0,29.58,SSW,192,10.0,16.0,47,0.00,,---,0.00,VWS V14.01,2013-03-21 19:04:00,
2013-03-21 14:10:00,72.6,51.8,29.58,SSW,205,12.0,21.0,48,0.00,,---,0.00,VWS V14.01,2013-03-21 19:10:00,
2013-03-21 14:13:00,72.7,51.9,29.57,South,190,16.0,21.0,48,0.00,,---,0.00,VWS V14.01,2013-03-21 19:13:00,
2013-03-21 14:16:00,72.6,51.8,29.57,SSW,203,11.0,21.0,48,0.00,,---,0.00,VWS V14.01,2013-03-21 19:16:00,
2013-03-21 14:19:00,72.6,52.4,29.56,South,189,13.0,21.0,49,0.00,,---,0.00,VWS V14.01,2013-03-21 19:19:00,
2013-03-21 14:22:00,72.6,52.4,29.56,SW,224,18.0,21.0,49,0.00,,---,0.00,VWS V14.01,2013-03-21 19:22:00,
2013-03-21 14:25:00,72.9,52.6,29.56,SSW,194,17.0,21.0,49,0.00,,---,0.00,VWS V14.01,2013-03-21 19:25:00,
2013-03-21 14:28:00,72.9,53.2,29.55,South,182,14.0,21.0,50,0.00,,---,0.00,VWS V14.01,2013-03-21 19:28:00,
2013-03-21 14:34:00,73.4,53.7,29.55,SSW,195,15.0,18.0,50,0.00,,---,0.00,VWS V14.01,2013-03-21 19:34:00,
2013-03-21 14:37:00,73.4,53.1,29.54,SSW,210,17.0,22.0,49,0.00,,---,0.00,VWS V14.01,2013-03-21 19:37:00,
2013-03-21 14:40:00,73.5,53.2,29.54,South,180,13.0,22.0,49,0.00,,---,0.00,VWS V14.01,2013-03-21 19:40:00,
2013-03-21 14:43:00,73.5,53.7,29.53,South,182,15.0,22.0,50,0.00,,---,0.00,VWS V14.01,2013-03-21 19:43:00,
2013-03-21 14:49:00,73.8,54.0,29.53,SSW,194,10.0,22.0,50,0.00,,---,0.00,VWS V14.01,2013-03-21 19:49:00,
2013-03-21 14:52:00,73.9,54.1,29.53,SSW,200,16.0,22.0,50,0.00,,---,0.00,VWS V14.01,2013-03-21 19:52:00,
2013-03-21 14:55:00,73.6,53.8,29.53,SSW,198,13.0,22.0,50,0.00,,---,0.00,VWS V14.01,2013-03-21 19:55:00,
2013-03-21 14:58:00,73.6,53.8,29.53,SSW,192,10.0,22.0,50,0.00,,---,0.00,VWS V14.01,2013-03-21 19:58:00,
2013-03-21 15:01:00,73.7,53.9,29.52,SSW,210,18.0,21.0,50,0.00,,---,0.00,VWS V14.01,2013-03-21 20:01:00,
2013-03-21 15:04:00,73.5,53.7,29.52,SSW,210,11.0,21.0,50,0.00,,---,0.00,VWS V14.01,2013-03-21 20:04:00,
2013-03-21 15:07:00,73.6,53.8,29.52,SSW,200,17.0,21.0,50,0.00,,---,0.00,VWS V14.01,2013-03-21 20:07:00,
2013-03-21 15:10:00,73.7,53.9,29.52,SW,220,15.0,21.0,50,0.00,,---,0.00,VWS V14.01,2013-03-21 20:10:00,
2013-03-21 15:13:00,74.1,54.3,29.51,SW,226,10.0,21.0,50,0.00,,---,0.00,VWS V14.01,2013-03-21 20:13:00,
2013-03-21 15:19:00,74.6,54.2,29.51,SSW,201,16.0,21.0,49,0.00,,---,0.00,VWS V14.01,2013-03-21 20:19:00,
2013-03-21 15:22:00,74.3,53.9,29.51,South,188,10.0,21.0,49,0.00,,---,0.00,VWS V14.01,2013-03-21 20:22:00,
2013-03-21 15:25:00,74.4,54.0,29.50,SSW,205,17.0,21.0,49,0.00,,---,0.00,VWS V14.01,2013-03-21 20:25:00,
2013-03-21 15:28:00,74.3,53.9,29.50,South,172,11.0,21.0,49,0.00,,---,0.00,VWS V14.01,2013-03-21 20:28:00,
2013-03-21 15:35:00,74.5,54.7,29.50,SSW,205,9.0,19.0,50,0.00,,---,0.00,VWS V14.01,2013-03-21 20:35:00,
2013-03-21 15:38:00,74.5,54.1,29.49,SSW,196,9.0,19.0,49,0.00,,---,0.00,VWS V14.01,2013-03-21 20:38:00,
2013-03-21 15:41:00,74.4,54.0,29.49,SSW,196,16.0,19.0,49,0.00,,---,0.00,VWS V14.01,2013-03-21 20:41:00,
2013-03-21 15:44:00,74.3,54.5,29.49,SSW,205,12.0,19.0,50,0.00,,---,0.00,VWS V14.01,2013-03-21 20:44:00,
2013-03-21 15:47:00,74.4,54.0,29.48,SW,215,15.0,19.0,49,0.00,,---,0.00,VWS V14.01,2013-03-21 20:47:00,
2013-03-21 15:50:00,74.6,54.2,29.48,SW,215,12.0,21.0,49,0.00,,---,0.00,VWS V14.01,2013-03-21 20:50:00,
2013-03-21 15:59:00,74.8,54.4,29.48,South,178,9.0,21.0,49,0.00,,---,0.00,VWS V14.01,2013-03-21 20:59:00,
2013-03-21 16:05:00,74.9,54.5,29.48,SSW,196,11.0,15.0,49,0.00,,---,0.00,VWS V14.01,2013-03-21 21:05:00,
2013-03-21 16:08:00,75.0,54.6,29.48,SSW,193,13.0,17.0,49,0.00,,---,0.00,VWS V14.01,2013-03-21 21:08:00,
2013-03-21 16:14:00,75.2,54.8,29.47,SSW,198,7.0,17.0,49,0.00,,---,0.00,VWS V14.01,2013-03-21 21:14:00,
2013-03-21 16:17:00,75.3,54.8,29.47,South,181,9.0,17.0,49,0.00,,---,0.00,VWS V14.01,2013-03-21 21:17:00,
2013-03-21 16:20:00,75.5,55.0,29.47,SSW,203,12.0,17.0,49,0.00,,---,0.00,VWS V14.01,2013-03-21 21:20:00,
2013-03-21 16:23:00,75.6,55.1,29.47,South,181,7.0,17.0,49,0.00,,---,0.00,VWS V14.01,2013-03-21 21:23:00,
2013-03-21 16:29:00,76.0,54.9,29.46,South,186,12.0,17.0,48,0.00,,---,0.00,VWS V14.01,2013-03-21 21:29:00,
2013-03-21 16:31:00,76.0,54.9,29.46,South,180,11.0,17.0,48,0.00,,---,0.00,VWS V14.01,2013-03-21 21:31:00,
2013-03-21 16:32:00,75.8,54.7,29.46,South,169,7.0,15.0,48,0.00,,---,0.00,VWS V14.01,2013-03-21 21:32:00,
2013-03-21 16:35:00,75.8,55.3,29.45,South,186,9.0,15.0,49,0.00,,---,0.00,VWS V14.01,2013-03-21 21:35:00,
2013-03-21 16:38:00,76.0,54.9,29.46,SSW,192,10.0,15.0,48,0.00,,---,0.00,VWS V14.01,2013-03-21 21:38:00,
2013-03-21 16:45:00,76.7,55.5,29.45,SSW,198,9.0,16.0,48,0.00,,---,0.00,VWS V14.01,2013-03-21 21:45:00,
2013-03-21 16:54:00,77.3,55.5,29.45,South,176,9.0,16.0,47,0.00,,---,0.00,VWS V14.01,2013-03-21 21:54:00,
2013-03-21 17:00:00,77.3,54.9,29.44,South,175,10.0,16.0,46,0.00,,---,0.00,VWS V14.01,2013-03-21 22:00:00,
2013-03-21 17:03:00,77.4,55.0,29.44,South,190,11.0,15.0,46,0.00,,---,0.00,VWS V14.01,2013-03-21 22:03:00,
2013-03-21 17:09:00,78.5,55.4,29.44,SSW,206,12.0,17.0,45,0.00,,---,0.00,VWS V14.01,2013-03-21 22:09:00,
2013-03-21 17:12:00,78.7,55.0,29.43,SSW,193,11.0,19.0,44,0.00,,---,0.00,VWS V14.01,2013-03-21 22:12:00,
2013-03-21 17:15:00,78.6,54.9,29.43,SSW,205,9.0,19.0,44,0.00,,---,0.00,VWS V14.01,2013-03-21 22:15:00,
2013-03-21 17:21:00,78.3,54.6,29.43,SSW,196,10.0,19.0,44,0.00,,---,0.00,VWS V14.01,2013-03-21 22:21:00,
2013-03-21 17:27:00,78.7,55.6,29.43,South,187,8.0,19.0,45,0.00,,---,0.00,VWS V14.01,2013-03-21 22:27:00,
2013-03-21 17:30:00,78.9,55.2,29.43,South,184,9.0,19.0,44,0.00,,---,0.00,VWS V14.01,2013-03-21 22:30:00,
2013-03-21 17:33:00,78.8,55.1,29.43,South,178,9.0,13.0,44,0.00,,---,0.00,VWS V14.01,2013-03-21 22:33:00,
2013-03-21 17:36:00,78.8,55.1,29.43,SSE,167,8.0,13.0,44,0.00,,---,0.00,VWS V14.01,2013-03-21 22:36:00,
2013-03-21 17:42:00,78.9,55.2,29.42,South,182,12.0,15.0,44,0.00,,---,0.00,VWS V14.01,2013-03-21 22:42:00,
2013-03-21 17:45:00,79.0,55.2,29.42,South,188,13.0,15.0,44,0.00,,---,0.00,VWS V14.01,2013-03-21 22:45:00,
2013-03-21 17:51:00,79.3,55.5,29.42,South,176,7.0,16.0,44,0.00,,---,0.00,VWS V14.01,2013-03-21 22:51:00,
2013-03-21 17:54:00,79.4,54.3,29.41,South,169,9.0,16.0,42,0.00,,---,0.00,VWS V14.01,2013-03-21 22:54:00,
2013-03-21 17:57:00,79.5,54.4,29.41,South,191,10.0,16.0,42,0.00,,---,0.00,VWS V14.01,2013-03-21 22:57:00,
2013-03-21 18:00:00,79.4,55.0,29.41,SSE,149,6.0,16.0,43,0.00,,---,0.00,VWS V14.01,2013-03-21 23:00:00,
2013-03-21 18:03:00,79.2,54.8,29.41,SSE,158,5.0,13.0,43,0.00,,---,0.00,VWS V14.01,2013-03-21 23:03:00,
2013-03-21 18:07:00,78.8,55.7,29.41,SSE,167,12.0,13.0,45,0.00,,---,0.00,VWS V14.01,2013-03-21 23:07:00,
2013-03-21 18:10:00,78.2,55.1,29.41,SSE,156,14.0,14.0,45,0.00,,---,0.00,VWS V14.01,2013-03-21 23:10:00,
2013-03-21 18:16:00,77.6,55.2,29.41,SSE,155,13.0,17.0,46,0.00,,---,0.00,VWS V14.01,2013-03-21 23:16:00,
2013-03-21 18:19:00,77.6,55.2,29.41,SSE,166,10.0,17.0,46,0.00,,---,0.00,VWS V14.01,2013-03-21 23:19:00,
2013-03-21 18:22:00,77.5,55.1,29.41,SSE,158,7.0,17.0,46,0.00,,---,0.00,VWS V14.01,2013-03-21 23:22:00,
2013-03-21 18:25:00,77.5,55.1,29.41,SSE,163,13.0,17.0,46,0.00,,---,0.00,VWS V14.01,2013-03-21 23:25:00,
2013-03-21 18:31:00,77.5,55.1,29.40,SE,144,11.0,17.0,46,0.00,,---,0.00,VWS V14.01,2013-03-21 23:31:00,
2013-03-21 18:34:00,77.5,55.1,29.41,SSE,160,11.0,16.0,46,0.00,,---,0.00,VWS V14.01,2013-03-21 23:34:00,
2013-03-21 18:40:00,77.6,55.2,29.41,SSW,198,8.0,17.0,46,0.00,,---,0.00,VWS V14.01,2013-03-21 23:40:00,
2013-03-21 18:46:00,77.5,55.7,29.40,SSE,165,7.0,17.0,47,0.00,,---,0.00,VWS V14.01,2013-03-21 23:46:00,
2013-03-21 18:49:00,77.5,55.1,29.40,South,175,10.0,17.0,46,0.00,,---,0.00,VWS V14.01,2013-03-21 23:49:00,
2013-03-21 18:52:00,77.4,55.0,29.40,South,171,10.0,17.0,46,0.00,,---,0.00,VWS V14.01,2013-03-21 23:52:00,
2013-03-21 18:58:00,77.4,55.0,29.40,South,174,7.0,17.0,46,0.00,,---,0.00,VWS V14.01,2013-03-21 23:58:00,
2013-03-21 19:01:00,77.4,55.0,29.40,SSE,164,12.0,17.0,46,0.00,,---,0.00,VWS V14.01,2013-03-22 00:01:00,
2013-03-21 19:04:00,77.4,55.6,29.41,SSE,161,9.0,14.0,47,0.00,,---,0.00,VWS V14.01,2013-03-22 00:04:00,
2013-03-21 19:07:00,77.3,55.5,29.40,SSE,158,8.0,14.0,47,0.00,,---,0.00,VWS V14.01,2013-03-22 00:07:00,
2013-03-21 19:10:00,77.1,55.3,29.40,SSE,155,10.0,14.0,47,0.00,,---,0.00,VWS V14.01,2013-03-22 00:10:00,
2013-03-21 19:13:00,77.2,55.4,29.41,South,171,5.0,14.0,47,0.00,,---,0.00,VWS V14.01,2013-03-22 00:13:00,
2013-03-21 19:16:00,77.3,55.5,29.40,SSE,168,3.0,14.0,47,0.00,,---,0.00,VWS V14.01,2013-03-22 00:16:00,
2013-03-21 19:19:00,77.3,55.5,29.40,South,177,5.0,14.0,47,0.00,,---,0.00,VWS V14.01,2013-03-22 00:19:00,
2013-03-21 19:22:00,77.3,55.5,29.40,SSE,155,8.0,14.0,47,0.00,,---,0.00,VWS V14.01,2013-03-22 00:22:00,
2013-03-21 19:25:00,77.1,54.8,29.40,South,171,12.0,14.0,46,0.00,,---,0.00,VWS V14.01,2013-03-22 00:25:00,
2013-03-21 19:28:00,77.1,54.8,29.40,South,175,7.0,14.0,46,0.00,,---,0.00,VWS V14.01,2013-03-22 00:28:00,
2013-03-21 19:32:00,77.1,54.8,29.40,South,184,8.0,10.0,46,0.00,,---,0.00,VWS V14.01,2013-03-22 00:32:00,
2013-03-21 19:38:00,76.8,55.1,29.40,South,179,7.0,10.0,47,0.00,,---,0.00,VWS V14.01,2013-03-22 00:38:00,
2013-03-21 19:41:00,76.6,54.9,29.40,South,173,4.0,10.0,47,0.00,,---,0.00,VWS V14.01,2013-03-22 00:41:00,
2013-03-21 19:44:00,76.2,54.5,29.40,SSE,157,8.0,10.0,47,0.00,,---,0.00,VWS V14.01,2013-03-22 00:44:00,
2013-03-21 19:47:00,76.0,54.9,29.40,South,171,14.0,14.0,48,0.00,,---,0.00,VWS V14.01,2013-03-22 00:47:00,
2013-03-21 19:50:00,76.0,55.5,29.40,South,184,9.0,14.0,49,0.00,,---,0.00,VWS V14.01,2013-03-22 00:50:00,
2013-03-21 19:53:00,76.0,55.5,29.40,SSE,167,10.0,14.0,49,0.00,,---,0.00,VWS V14.01,2013-03-22 00:53:00,
2013-03-21 19:56:00,75.9,55.4,29.40,SSE,161,11.0,14.0,49,0.00,,---,0.00,VWS V14.01,2013-03-22 00:56:00,
2013-03-21 19:59:00,75.9,55.4,29.40,South,172,12.0,16.0,49,0.00,,---,0.00,VWS V14.01,2013-03-22 00:59:00,
2013-03-21 20:05:00,75.8,55.3,29.40,South,180,4.0,14.0,49,0.00,,---,0.00,VWS V14.01,2013-03-22 01:05:00,
2013-03-21 20:08:00,75.6,55.7,29.40,SSE,167,9.0,14.0,50,0.00,,---,0.00,VWS V14.01,2013-03-22 01:08:00,
2013-03-21 20:14:00,75.5,55.6,29.40,SSE,166,11.0,15.0,50,0.00,,---,0.00,VWS V14.01,2013-03-22 01:14:00,
2013-03-21 20:17:00,75.4,55.5,29.40,South,170,9.0,17.0,50,0.00,,---,0.00,VWS V14.01,2013-03-22 01:17:00,
2013-03-21 20:20:00,75.3,55.9,29.40,South,179,13.0,17.0,51,0.00,,---,0.00,VWS V14.01,2013-03-22 01:20:00,
2013-03-21 20:23:00,75.2,55.8,29.40,South,177,13.0,17.0,51,0.00,,---,0.00,VWS V14.01,2013-03-22 01:23:00,
2013-03-21 20:26:00,75.3,55.9,29.40,South,173,13.0,18.0,51,0.00,,---,0.00,VWS V14.01,2013-03-22 01:26:00,
2013-03-21 20:29:00,75.1,55.8,29.40,SSW,196,8.0,18.0,51,0.00,,---,0.00,VWS V14.01,2013-03-22 01:29:00,
2013-03-21 20:32:00,75.1,55.8,29.40,South,180,11.0,16.0,51,0.00,,---,0.00,VWS V14.01,2013-03-22 01:32:00,
2013-03-21 20:35:00,75.0,55.7,29.41,SSW,193,9.0,17.0,51,0.00,,---,0.00,VWS V14.01,2013-03-22 01:35:00,
2013-03-21 20:38:00,75.0,55.7,29.41,South,183,10.0,17.0,51,0.00,,---,0.00,VWS V14.01,2013-03-22 01:38:00,
2013-03-21 20:45:00,74.8,56.0,29.41,South,181,11.0,17.0,52,0.00,,---,0.00,VWS V14.01,2013-03-22 01:45:00,
2013-03-21 20:48:00,74.7,55.9,29.41,SSE,167,8.0,17.0,52,0.00,,---,0.00,VWS V14.01,2013-03-22 01:48:00,
2013-03-21 20:51:00,74.6,55.8,29.41,South,179,16.0,17.0,52,0.00,,---,0.00,VWS V14.01,2013-03-22 01:51:00,
2013-03-21 20:54:00,74.6,55.8,29.41,South,170,13.0,19.0,52,0.00,,---,0.00,VWS V14.01,2013-03-22 01:54:00,
2013-03-21 20:57:00,74.5,55.7,29.41,South,184,11.0,19.0,52,0.00,,---,0.00,VWS V14.01,2013-03-22 01:57:00,
2013-03-21 21:00:00,74.4,55.7,29.41,SSW,202,13.0,21.0,52,0.00,,---,0.00,VWS V14.01,2013-03-22 02:00:00,
2013-03-21 21:03:00,74.3,55.6,29.41,South,186,9.0,14.0,52,0.00,,---,0.00,VWS V14.01,2013-03-22 02:03:00,
2013-03-21 21:09:00,74.0,55.8,29.42,South,175,12.0,19.0,53,0.00,,---,0.00,VWS V14.01,2013-03-22 02:09:00,
2013-03-21 21:12:00,74.1,55.9,29.42,South,178,12.0,20.0,53,0.00,,---,0.00,VWS V14.01,2013-03-22 02:12:00,
2013-03-21 21:18:00,74.0,55.8,29.42,South,178,8.0,20.0,53,0.00,,---,0.00,VWS V14.01,2013-03-22 02:18:00,
2013-03-21 21:24:00,73.8,55.6,29.42,SSW,201,17.0,20.0,53,0.00,,---,0.00,VWS V14.01,2013-03-22 02:24:00,
2013-03-21 21:27:00,73.7,55.5,29.42,South,181,12.0,20.0,53,0.00,,---,0.00,VWS V14.01,2013-03-22 02:27:00,
2013-03-21 21:30:00,73.5,55.9,29.42,SSW,192,10.0,20.0,54,0.00,,---,0.00,VWS V14.01,2013-03-22 02:30:00,
2013-03-21 21:33:00,73.4,55.8,29.43,South,189,10.0,17.0,54,0.00,,---,0.00,VWS V14.01,2013-03-22 02:33:00,
2013-03-21 21:36:00,73.2,56.1,29.43,SSW,204,12.0,19.0,55,0.00,,---,0.00,VWS V14.01,2013-03-22 02:36:00,
2013-03-21 21:39:00,73.1,56.0,29.43,South,187,11.0,20.0,55,0.00,,---,0.00,VWS V14.01,2013-03-22 02:39:00,
2013-03-21 21:46:00,72.9,55.8,29.43,SSW,198,10.0,21.0,55,0.00,,---,0.00,VWS V14.01,2013-03-22 02:46:00,
2013-03-21 21:49:00,72.9,55.8,29.43,South,186,11.0,21.0,55,0.00,,---,0.00,VWS V14.01,2013-03-22 02:49:00,
2013-03-21 21:55:00,72.6,56.0,29.43,South,185,12.0,21.0,56,0.00,,---,0.00,VWS V14.01,2013-03-22 02:55:00,
2013-03-21 21:58:00,72.5,56.4,29.44,SSW,208,13.0,21.0,57,0.00,,---,0.00,VWS V14.01,2013-03-22 02:58:00,
2013-03-21 22:01:00,72.5,56.4,29.44,SSW,197,12.0,21.0,57,0.00,,---,0.00,VWS V14.01,2013-03-22 03:01:00,
2013-03-21 22:04:00,72.5,56.4,29.44,SSW,206,8.0,21.0,57,0.00,,---,0.00,VWS V14.01,2013-03-22 03:04:00,
2013-03-21 22:07:00,72.4,56.3,29.44,SSW,197,11.0,21.0,57,0.00,,---,0.00,VWS V14.01,2013-03-22 03:07:00,
2013-03-21 22:10:00,72.3,56.7,29.44,SSW,195,15.0,24.0,58,0.00,,---,0.00,VWS V14.01,2013-03-22 03:10:00,
2013-03-21 22:16:00,72.1,56.5,29.45,South,181,14.0,24.0,58,0.00,,---,0.00,VWS V14.01,2013-03-22 03:16:00,
2013-03-21 22:19:00,72.0,56.4,29.44,South,186,15.0,24.0,58,0.00,,---,0.00,VWS V14.01,2013-03-22 03:19:00,
2013-03-21 22:22:00,72.0,56.4,29.45,SSW,205,11.0,24.0,58,0.00,,---,0.00,VWS V14.01,2013-03-22 03:22:00,
2013-03-21 22:28:00,71.7,56.6,29.46,South,188,16.0,24.0,59,0.00,,---,0.00,VWS V14.01,2013-03-22 03:28:00,
2013-03-21 22:31:00,71.7,56.6,29.45,SSW,198,13.0,13.0,59,0.00,,---,0.00,VWS V14.01,2013-03-22 03:31:00,
2013-03-21 22:34:00,71.6,56.5,29.45,SSW,196,15.0,18.0,59,0.00,,---,0.00,VWS V14.01,2013-03-22 03:34:00,
2013-03-21 22:40:00,71.5,56.4,29.45,SSW,213,10.0,21.0,59,0.00,,---,0.00,VWS V14.01,2013-03-22 03:40:00,
2013-03-21 22:43:00,71.3,56.2,29.45,SSW,198,9.0,21.0,59,0.00,,---,0.00,VWS V14.01,2013-03-22 03:43:00,
2013-03-21 22:46:00,71.3,56.7,29.45,SSW,200,13.0,21.0,60,0.00,,---,0.00,VWS V14.01,2013-03-22 03:46:00,
2013-03-21 22:52:00,71.1,56.5,29.45,SSW,200,14.0,21.0,60,0.00,,---,0.00,VWS V14.01,2013-03-22 03:52:00,
2013-03-21 22:58:00,70.9,56.3,29.45,SSW,208,15.0,21.0,60,0.00,,---,0.00,VWS V14.01,2013-03-22 03:58:00,
2013-03-21 23:02:00,71.0,56.4,29.45,SSW,205,15.0,20.0,60,0.00,,---,0.00,VWS V14.01,2013-03-22 04:02:00,
2013-03-21 23:08:00,70.7,56.6,29.45,SSW,204,13.0,20.0,61,0.00,,---,0.00,VWS V14.01,2013-03-22 04:08:00,
2013-03-21 23:11:00,70.6,56.5,29.45,SSW,213,12.0,20.0,61,0.00,,---,0.00,VWS V14.01,2013-03-22 04:11:00,
2013-03-21 23:14:00,70.5,56.4,29.45,South,190,16.0,21.0,61,0.00,,---,0.00,VWS V14.01,2013-03-22 04:14:00,
2013-03-21 23:20:00,70.4,56.8,29.46,SSW,192,12.0,22.0,62,0.00,,---,0.00,VWS V14.01,2013-03-22 04:20:00,
2013-03-21 23:23:00,70.5,56.4,29.46,SSW,202,10.0,22.0,61,0.00,,---,0.00,VWS V14.01,2013-03-22 04:23:00,
2013-03-21 23:29:00,70.3,56.7,29.46,SSW,207,17.0,24.0,62,0.00,,---,0.00,VWS V14.01,2013-03-22 04:29:00,
2013-03-21 23:32:00,70.3,56.7,29.46,SSW,192,7.0,15.0,62,0.00,,---,0.00,VWS V14.01,2013-03-22 04:32:00,
2013-03-21 23:35:00,70.1,56.5,29.45,SW,217,13.0,19.0,62,0.00,,---,0.00,VWS V14.01,2013-03-22 04:35:00,
2013-03-21 23:38:00,70.1,56.5,29.45,SSW,211,13.0,19.0,62,0.00,,---,0.00,VWS V14.01,2013-03-22 04:38:00,
2013-03-21 23:41:00,70.0,56.4,29.45,SSW,210,14.0,19.0,62,0.00,,---,0.00,VWS V14.01,2013-03-22 04:41:00,
2013-03-21 23:47:00,69.8,56.7,29.46,South,187,8.0,19.0,63,0.00,,---,0.00,VWS V14.01,2013-03-22 04:47:00,
2013-03-21 23:50:00,69.8,56.7,29.45,South,188,15.0,19.0,63,0.00,,---,0.00,VWS V14.01,2013-03-22 04:50:00,
2013-03-21 23:56:00,69.7,56.6,29.45,SSW,204,14.0,22.0,63,0.00,,---,0.00,VWS V14.01,2013-03-22 04:56:00,
2013-03-21 23:59:00,69.6,56.5,29.45,SW,220,14.0,22.0,63,0.00,,---,0.00,VWS V14.01,2013-03-22 04:59:00,